Time,TemperatureF,DewpointF,PressureIn,WindDirection,WindDirectionDegrees,WindSpeedMPH,WindSpeedGustMPH,Humidity,HourlyPrecipIn,Conditions,Clouds,dailyrainin,SoftwareType,DateUTC
2013-09-17 00:14:00,37.0,35.0,30.50,WNW,297,0.0,-999.0,94,-99.99,,,-99.99,,2013-09-17 04:14:00,
2013-09-17 00:24:00,37.0,35.0,30.50,WNW,296,0.0,-999.0,94,-99.99,,,-99.99,,2013-09-17 04:24:00,
2013-09-17 00:44:00,37.0,35.0,30.50,WNW,296,0.0,-999.0,94,-99.99,,,-99.99,,2013-09-17 04:44:00,
2013-09-17 00:54:00,37.0,35.0,30.50,WNW,296,0.0,-999.0,94,-99.99,,,-99.99,,2013-09-17 04:54:00,
2013-09-17 01:12:00,36.0,34.0,30.50,WNW,296,0.0,-999.0,94,-99.99,,,-99.99,,2013-09-17 05:12:00,
2013-09-17 01:23:00,36.0,34.0,30.50,WNW,296,0.0,-999.0,94,-99.99,,,-99.99,,2013-09-17 05:23:00,
2013-09-17 01:42:00,36.0,35.0,30.50,WNW,296,0.0,-999.0,95,-99.99,,,-99.99,,2013-09-17 05:42:00,
2013-09-17 01:52:00,36.0,35.0,30.50,WNW,296,0.0,-999.0,95,-99.99,,,-99.99,,2013-09-17 05:52:00,
2013-09-17 02:12:00,35.0,33.0,30.50,WNW,296,0.0,-999.0,94,-99.99,,,-99.99,,2013-09-17 06:12:00,
2013-09-17 02:22:00,35.0,34.0,30.50,WNW,296,0.0,-999.0,95,-99.99,,,-99.99,,2013-09-17 06:22:00,
2013-09-17 02:42:00,35.0,34.0,30.51,WNW,297,0.0,-999.0,95,-99.99,,,-99.99,,2013-09-17 06:42:00,
2013-09-17 02:52:00,35.0,34.0,30.50,WNW,297,0.0,-999.0,95,-99.99,,,-99.99,,2013-09-17 06:52:00,
2013-09-17 03:11:00,35.0,34.0,30.50,WNW,297,0.0,-999.0,95,-99.99,,,-99.99,,2013-09-17 07:11:00,
2013-09-17 03:23:00,34.0,33.0,30.50,WNW,297,0.0,-999.0,95,-99.99,,,-99.99,,2013-09-17 07:23:00,
2013-09-17 03:42:00,34.0,33.0,30.50,WNW,297,0.0,-999.0,95,-99.99,,,-99.99,,2013-09-17 07:42:00,
2013-09-17 03:52:00,35.0,34.0,30.50,WNW,297,0.0,-999.0,95,-99.99,,,-99.99,,2013-09-17 07:52:00,
2013-09-17 04:12:00,34.0,33.0,30.50,WNW,296,0.0,-999.0,95,-99.99,,,-99.99,,2013-09-17 08:12:00,
2013-09-17 04:22:00,34.0,33.0,30.50,WNW,296,0.0,-999.0,95,-99.99,,,-99.99,,2013-09-17 08:22:00,
2013-09-17 04:42:00,34.0,33.0,30.50,WNW,296,0.0,-999.0,95,-99.99,,,-99.99,,2013-09-17 08:42:00,
2013-09-17 04:52:00,34.0,33.0,30.51,WNW,296,0.0,-999.0,95,-99.99,,,-99.99,,2013-09-17 08:52:00,
2013-09-17 05:12:00,33.0,32.0,30.50,WNW,297,0.0,-999.0,95,-99.99,,,-99.99,,2013-09-17 09:12:00,
2013-09-17 05:22:00,33.0,32.0,30.51,WNW,296,0.0,-999.0,95,-99.99,,,-99.99,,2013-09-17 09:22:00,
2013-09-17 05:42:00,33.0,32.0,30.51,WNW,297,0.0,-999.0,95,-99.99,,,-99.99,,2013-09-17 09:42:00,
2013-09-17 05:53:00,33.0,32.0,30.51,WNW,297,0.0,-999.0,95,-99.99,,,-99.99,,2013-09-17 09:53:00,
2013-09-17 06:12:00,33.0,32.0,30.52,WNW,297,0.0,-999.0,95,-99.99,,,-99.99,,2013-09-17 10:12:00,
2013-09-17 06:23:00,33.0,32.0,30.52,WNW,297,0.0,-999.0,96,-99.99,,,-99.99,,2013-09-17 10:23:00,
2013-09-17 06:42:00,33.0,32.0,30.52,WNW,297,0.0,-999.0,95,-99.99,,,-99.99,,2013-09-17 10:42:00,
2013-09-17 06:53:00,33.0,32.0,30.52,WNW,296,0.0,-999.0,96,-99.99,,,-99.99,,2013-09-17 10:53:00,
2013-09-17 07:11:00,33.0,32.0,30.52,WNW,296,0.0,-999.0,95,-99.99,,,-99.99,,2013-09-17 11:11:00,
2013-09-17 07:22:00,33.0,32.0,30.52,WNW,297,0.0,-999.0,95,-99.99,,,-99.99,,2013-09-17 11:22:00,
2013-09-17 07:52:00,33.0,32.0,30.52,WNW,297,0.0,-999.0,96,-99.99,,,-99.99,,2013-09-17 11:52:00,
2013-09-17 08:12:00,33.0,32.0,30.53,WNW,297,0.0,-999.0,96,-99.99,,,-99.99,,2013-09-17 12:12:00,
2013-09-17 08:22:00,34.0,33.0,30.53,WNW,297,0.0,-999.0,96,-99.99,,,-99.99,,2013-09-17 12:22:00,
2013-09-17 08:42:00,36.0,35.0,30.52,WNW,297,0.0,-999.0,96,-99.99,,,-99.99,,2013-09-17 12:42:00,
2013-09-17 08:52:00,39.0,38.0,30.52,WNW,297,0.0,-999.0,97,-99.99,,,-99.99,,2013-09-17 12:52:00,
2013-09-17 09:11:00,40.0,39.0,30.53,WNW,297,0.0,-999.0,97,-99.99,,,-99.99,,2013-09-17 13:11:00,
2013-09-17 09:22:00,43.0,42.0,30.52,NE,49,1.0,-999.0,97,-99.99,,,-99.99,,2013-09-17 13:22:00,
2013-09-17 09:42:00,45.0,44.0,30.52,NE,49,2.0,-999.0,97,-99.99,,,-99.99,,2013-09-17 13:42:00,
2013-09-17 09:52:00,48.0,47.0,30.51,ENE,65,0.0,-999.0,97,-99.99,,,-99.99,,2013-09-17 13:52:00,
2013-09-17 10:11:00,50.0,49.0,30.51,ESE,117,1.0,-999.0,95,-99.99,,,-99.99,,2013-09-17 14:11:00,
2013-09-17 10:22:00,51.0,47.0,30.50,SSE,157,3.0,-999.0,86,-99.99,,,-99.99,,2013-09-17 14:22:00,
2013-09-17 10:52:00,53.0,46.0,30.50,SSE,149,4.0,-999.0,77,-99.99,,,-99.99,,2013-09-17 14:52:00,
2013-09-17 11:11:00,54.0,47.0,30.50,SSE,148,3.0,-999.0,76,-99.99,,,-99.99,,2013-09-17 15:11:00,
2013-09-17 11:22:00,54.0,46.0,30.50,SE,144,3.0,-999.0,74,-99.99,,,-99.99,,2013-09-17 15:22:00,
2013-09-17 11:44:00,55.0,47.0,30.50,South,175,2.0,-999.0,75,-99.99,,,-99.99,,2013-09-17 15:44:00,
2013-09-17 11:53:00,57.0,48.0,30.49,SSW,202,2.0,-999.0,73,-99.99,,,-99.99,,2013-09-17 15:53:00,
2013-09-17 12:13:00,57.0,47.0,30.49,SSW,194,4.0,-999.0,68,-99.99,,,-99.99,,2013-09-17 16:13:00,
2013-09-17 12:23:00,57.0,45.0,30.48,SSW,202,5.0,-999.0,64,-99.99,,,-99.99,,2013-09-17 16:23:00,
2013-09-17 12:42:00,58.0,45.0,30.48,SSW,202,6.0,-999.0,62,-99.99,,,-99.99,,2013-09-17 16:42:00,
2013-09-17 12:54:00,58.0,45.0,30.47,SSW,198,5.0,-999.0,63,-99.99,,,-99.99,,2013-09-17 16:54:00,
2013-09-17 13:12:00,59.0,46.0,30.47,SSE,161,6.0,-999.0,61,-99.99,,,-99.99,,2013-09-17 17:12:00,
2013-09-17 13:24:00,59.0,46.0,30.47,South,183,7.0,-999.0,61,-99.99,,,-99.99,,2013-09-17 17:24:00,
2013-09-17 13:43:00,59.0,46.0,30.46,SSW,199,6.0,-999.0,62,-99.99,,,-99.99,,2013-09-17 17:43:00,
2013-09-17 13:53:00,60.0,46.0,30.45,SSE,163,5.0,-999.0,60,-99.99,,,-99.99,,2013-09-17 17:53:00,
2013-09-17 14:12:00,60.0,47.0,30.45,SSW,207,7.0,-999.0,61,-99.99,,,-99.99,,2013-09-17 18:12:00,
2013-09-17 14:22:00,61.0,48.0,30.44,SSE,158,6.0,-999.0,63,-99.99,,,-99.99,,2013-09-17 18:22:00,
2013-09-17 14:42:00,60.0,47.0,30.43,South,179,7.0,-999.0,61,-99.99,,,-99.99,,2013-09-17 18:42:00,
2013-09-17 14:52:00,61.0,47.0,30.42,SSE,167,8.0,-999.0,61,-99.99,,,-99.99,,2013-09-17 18:52:00,
2013-09-17 15:12:00,61.0,47.0,30.42,South,190,6.0,-999.0,60,-99.99,,,-99.99,,2013-09-17 19:12:00,
2013-09-17 15:22:00,61.0,47.0,30.41,South,187,7.0,-999.0,59,-99.99,,,-99.99,,2013-09-17 19:22:00,
2013-09-17 15:52:00,62.0,46.0,30.39,SSW,213,6.0,-999.0,56,-99.99,,,-99.99,,2013-09-17 19:52:00,
2013-09-17 16:11:00,61.0,46.0,30.39,SSW,192,7.0,-999.0,58,-99.99,,,-99.99,,2013-09-17 20:11:00,
2013-09-17 16:22:00,62.0,48.0,30.38,WSW,246,7.0,-999.0,61,-99.99,,,-99.99,,2013-09-17 20:22:00,
2013-09-17 16:42:00,62.0,47.0,30.37,South,184,7.0,-999.0,59,-99.99,,,-99.99,,2013-09-17 20:42:00,
2013-09-17 16:52:00,62.0,49.0,30.37,SSW,212,6.0,-999.0,63,-99.99,,,-99.99,,2013-09-17 20:52:00,
2013-09-17 17:12:00,62.0,46.0,30.36,SSE,163,5.0,-999.0,56,-99.99,,,-99.99,,2013-09-17 21:12:00,
2013-09-17 17:22:00,62.0,49.0,30.35,South,170,4.0,-999.0,63,-99.99,,,-99.99,,2013-09-17 21:22:00,
2013-09-17 17:54:00,60.0,47.0,30.35,SSE,159,6.0,-999.0,63,-99.99,,,-99.99,,2013-09-17 21:54:00,
2013-09-17 18:13:00,60.0,47.0,30.35,South,179,7.0,-999.0,62,-99.99,,,-99.99,,2013-09-17 22:13:00,
2013-09-17 18:24:00,60.0,47.0,30.35,South,179,7.0,-999.0,62,-99.99,,,-99.99,,2013-09-17 22:24:00,
2013-09-17 18:53:00,58.0,46.0,30.34,SE,140,7.0,-999.0,64,-99.99,,,-99.99,,2013-09-17 22:53:00,
2013-09-17 19:12:00,57.0,45.0,30.34,SE,145,6.0,-999.0,65,-99.99,,,-99.99,,2013-09-17 23:12:00,
2013-09-17 19:22:00,56.0,45.0,30.34,SE,140,6.0,-999.0,67,-99.99,,,-99.99,,2013-09-17 23:22:00,
2013-09-17 19:52:00,54.0,45.0,30.32,SSE,153,4.0,-999.0,71,-99.99,,,-99.99,,2013-09-17 23:52:00,
2013-09-17 20:11:00,53.0,45.0,30.32,SSE,147,2.0,-999.0,74,-99.99,,,-99.99,,2013-09-18 00:11:00,
2013-09-17 20:42:00,50.0,44.0,30.31,SSE,147,0.0,-999.0,80,-99.99,,,-99.99,,2013-09-18 00:42:00,
2013-09-17 20:52:00,49.0,44.0,30.32,SE,146,0.0,-999.0,83,-99.99,,,-99.99,,2013-09-18 00:52:00,
2013-09-17 21:11:00,48.0,44.0,30.31,SE,146,0.0,-999.0,86,-99.99,,,-99.99,,2013-09-18 01:11:00,
2013-09-17 21:22:00,48.0,45.0,30.31,SSE,147,0.0,-999.0,88,-99.99,,,-99.99,,2013-09-18 01:22:00,
2013-09-17 21:42:00,47.0,44.0,30.30,SE,146,0.0,-999.0,89,-99.99,,,-99.99,,2013-09-18 01:42:00,
2013-09-17 21:52:00,46.0,43.0,30.30,SSE,147,0.0,-999.0,90,-99.99,,,-99.99,,2013-09-18 01:52:00,
2013-09-17 22:11:00,45.0,43.0,30.30,SSE,147,0.0,-999.0,91,-99.99,,,-99.99,,2013-09-18 02:11:00,
2013-09-17 22:22:00,45.0,43.0,30.29,SSE,147,0.0,-999.0,92,-99.99,,,-99.99,,2013-09-18 02:22:00,
2013-09-17 22:43:00,45.0,43.0,30.29,SSE,147,0.0,-999.0,93,-99.99,,,-99.99,,2013-09-18 02:43:00,
2013-09-17 22:52:00,45.0,43.0,30.29,SE,138,0.0,-999.0,93,-99.99,,,-99.99,,2013-09-18 02:52:00,
2013-09-17 23:12:00,47.0,45.0,30.29,SE,138,1.0,-999.0,94,-99.99,,,-99.99,,2013-09-18 03:12:00,
2013-09-17 23:23:00,46.0,44.0,30.29,SE,138,0.0,-999.0,93,-99.99,,,-99.99,,2013-09-18 03:23:00,
2013-09-17 23:55:00,47.0,46.0,30.27,SE,138,1.0,-999.0,95,-99.99,,,-99.99,,2013-09-18 03:55:00,